User: anonymous   Login
Location: Robledo de Chavela
(40.5014°N, 4.2377°W)
Time: 11:51:08
(UTC+00:00)
Language:

Cosmos 1844 Rocket - Orbit

View from above orbital plane
View from above orbital plane
View from above satellite
View from above satellite

Ground track
Ground track

The orbit data is extracted from the following two-line orbital elements,

1 17974U 87041B   24173.70209758  .00000145  00000-0  95083-4 0  9992
2 17974  71.0084 272.4507 0011697  80.0036  25.9830 14.17455631919371
Epoch (UTC): 21 June 2024 16:51:01
Eccentricity: 0.0011697
inclination: 71.0084°
perigee height: 825 km
apogee height: 842 km
right ascension of ascending node: 272.4507°
argument of perigee: 80.0036°
revolutions per day: 14.17455631
mean anomaly at epoch: 25.9830°
orbit number at epoch: 91937

The dashed part of the orbit path shows where the satellite is in the earth's shadow,  

DLR